This demonstration page uses our WeatherBlox Daily Observations layout. Learn more.

Left ArrowRight Arrow

41.86663, -103.66717

Hourly Observations for January 5, 2018

Temp ( °F °C ) Dew Point ( °F °C ) Humidity (%) Winds ( mph kmh ) Pressure ( in mb ) Visibility ( mi km ) Precip ( " mm )
12:53 am 00:53 Clear 15 -9.4 7 -13.9 70 70 NNW 9 15 30.21 1023 10 16 N/A
1:53 am 01:53 Clear 15 -9.4 6 -14.4 67 67 NW 9 15 30.22 1023 10 16 N/A
2:53 am 02:53 Clear 20 -6.7 10 -12.2 65 65 WNW 13 20 30.21 1023 10 16 N/A
3:53 am 03:53 Clear 14 -10 5 -15 67 67 NNW 8 13 30.24 1024 10 16 N/A
4:53 am 04:53 Clear 10 -12.2 4 -15.6 76 76 N N/A 30.29 1026 10 16 N/A
5:53 am 05:53 Clear 14 -10 4 -15.6 64 64 WNW 10 17 30.30 1026 10 16 N/A
6:53 am 06:53 Clear 19 -7.2 9 -12.8 65 65 NNW 12 19 30.29 1026 10 16 N/A
7:53 am 07:53 Mostly Sunny 20 -6.7 8 -13.3 60 60 NW 8 13 30.27 1025 10 16 N/A
8:53 am 08:53 Mostly Cloudy 26 -3.3 13 -10.6 57 57 WNW 8 13 30.29 1026 10 16 N/A
9:53 am 09:53 Mostly Cloudy 32 undefined 15 -9.4 50 50 NW 9 15 30.27 1025 10 16 N/A
10:53 am 10:53 Sunny 32 undefined 17 -8.3 54 54 NW 7 11 30.26 1025 10 16 N/A
11:53 am 11:53 Sunny 36 2.2 19 -7.2 50 50 WNW 8 13 30.23 1024 8 13 N/A
12:53 pm 12:53 Mostly Sunny 40 4.4 22 -5.6 49 49 NW 3 6 30.20 1023 10 16 N/A
1:53 pm 13:53 Mostly Cloudy 38 3.3 23 -5 55 55 N N/A 30.20 1023 10 16 N/A
2:53 pm 14:53 Mostly Cloudy 40 4.4 25 -3.9 55 55 N N/A 30.19 1023 10 16 N/A
3:53 pm 15:53 Cloudy 37 2.8 24 -4.4 59 59 N N/A 30.23 1024 10 16 N/A
4:53 pm 16:53 Mostly Cloudy 32 undefined 23 -5 69 69 N N/A 30.26 1025 10 16 N/A
5:53 pm 17:53 Clear 30 -1.1 21 -6.1 69 69 N N/A 30.27 1025 10 16 N/A
6:53 pm 18:53 Clear 29 -1.7 20 -6.7 69 69 N N/A 30.27 1025 7 11 N/A
7:53 pm 19:53 Clear 23 -5 17 -8.3 78 78 NE 5 7 30.30 1026 7 11 N/A
8:53 pm 20:53 Hazy 22 -5.6 17 -8.3 82 82 N N/A 30.28 1026 6 10 N/A
9:27 pm 21:27 Clear with Mist and Fog 22 -5.6 18 -7.8 85 85 N N/A 30.39 1029 2 2 N/A
9:39 pm 21:39 Hazy 19 -7.2 14 -10 81 81 N N/A 30.39 1029 1 1 N/A
9:53 pm 21:53 Hazy 24 -4.4 14 -10 65 65 E 7 11 30.26 1025 1 2 N/A
9:59 pm 21:59 Hazy 23 -5 15 -9.4 72 72 ENE 9 15 30.33 1027 3 5 N/A
10:53 pm 22:53 Hazy 19 -7.2 14 -10 81 81 N N/A 30.27 1025 4 6 N/A
11:30 pm 23:30 Hazy 18 -8 9 -13 68 68 N N/A 30.39 1029 2 3 N/A
11:41 pm 23:41 Hazy 17 -8.3 11 -11.7 77 77 N 3 6 30.39 1029 3 4 N/A
11:51 pm 23:51 Hazy 19 -7 10 -12 68 68 NE 6 9 30.36 1028 3 5 N/A
11:53 pm 23:53 Hazy 20 -6.7 10 -12.2 65 65 NE 6 9 30.24 1024 4 6 N/A

Powered by AerisWeather